Flag for Germany Weather past 2 weeks in Kiel, Schleswig-Holstein, Germany

Now
39 °F

Overcast.


Feels Like: 34 °F
Forecast: 36 / 41 °F
Wind: 6 mph from South

Location: Kiel-Holtenau

Current Time: Mar 1, 2015 at 5:09:34 AM

Latest Report: Mar 1, 2015 at 4:00 AM


Visibility: 19 mi

Pressure: 29.56 "Hg

Humidity: 67%

Dew point: 29 °F

Location of KielLocation

Historic Weather in Kiel — Graph

°F

Kiel temperature yesterday

Maximum temperature yesterday: 44 °F (at 2:00 PM)
Minimum temperature yesterday: 31 °F (at 3:00 AM)
Average temperature yesterday: 38 °F

Past Weeks' High & Low Weather Summary

 TemperatureHumidityPressure
High46 °F (Feb 19, 3:00 PM)100% (Feb 14, 3:00 AM)30.64 "Hg (Feb 14, 3:00 AM)
Low29 °F (Feb 17, 8:00 AM)51% (Feb 19, 3:00 PM)29.21 "Hg (Feb 21, 12:00 PM)
Average38 °F87%29.92 "Hg
* Reported Feb 14 3:00 AM — Mar 1 3:00 AM, Kiel, Weather by CustomWeather, © 2015

Note: Actual official high and low records may vary slightly from our data, if they occured in-between our weather recording intervals... More about our weather records

Advertising

Kiel weather history for previous 24 hours

 ConditionsComfort  
Time TempWeatherWind HumidityBarometerVisibility
3:00 AM
Sun, Mar 1
39 °FOvercast.6 mph67%29.61 "Hg22 mi
2:00 AM39 °FOvercast.6 mph66%29.65 "Hg22 mi
1:00 AM39 °FOvercast.6 mph68%29.70 "Hg22 mi
12:00 AM39 °FPassing clouds.6 mph68%29.74 "Hg19 mi
11:00 PM
Sat, Feb 28
38 °FPassing clouds.6 mph70%29.79 "Hg18 mi
10:00 PM38 °FClear.5 mph69%29.83 "Hg17 mi
9:00 PM39 °FClear.5 mph71%29.86 "Hg14 mi
8:00 PM39 °FPassing clouds.5 mph72%29.88 "Hg12 mi
7:00 PM41 °FPassing clouds.5 mph68%29.90 "Hg10 mi
6:00 PM41 °FOvercast.5 mph67%29.91 "Hg9 mi
5:00 PM42 °FPassing clouds.6 mph65%29.93 "Hg12 mi
4:00 PM44 °FPartly sunny.6 mph62%29.96 "Hg14 mi
3:00 PM44 °FPartly sunny.5 mph62%29.97 "Hg19 mi
2:00 PM44 °FScattered clouds.6 mph64%29.99 "Hg12 mi
1:00 PM43 °FPassing clouds.6 mph65%30.01 "Hg12 mi
12:00 PM42 °FPassing clouds.6 mph71%30.02 "Hg12 mi
11:00 AM40 °FSunny.5 mph80%30.03 "Hg7 mi
10:00 AM36 °FOvercast.3 mph88%30.06 "Hg10 mi
9:00 AM35 °FOvercast.3 mph94%30.06 "Hg7 mi
8:00 AM34 °FFog.2 mph100%30.05 "Hg4 mi
7:00 AM35 °FOvercast.2 mph94%30.04 "Hg15 mi
6:00 AM35 °FOvercast.1 mph96%30.04 "Hg13 mi
5:00 AM35 °FOvercast.2 mph96%30.05 "Hg12 mi
Weather by CustomWeather, © 2015

See weather overviewHow to use our weather pages